Time,TemperatureF,DewpointF,PressureIn,WindDirection,WindDirectionDegrees,WindSpeedMPH,WindSpeedGustMPH,Humidity,HourlyPrecipIn,Conditions,Clouds,dailyrainin,SoftwareType,DateUTC
2013-10-12 00:01:00,57.2,44.5,30.12,NE,42,0.0,0.0,63,0.00,,CLR,0.00,VWS V14.01,2013-10-12 04:01:00,
2013-10-12 00:02:00,57.2,44.5,30.12,NE,42,0.0,0.0,63,0.00,,CLR,0.00,VWS V14.01,2013-10-12 04:02:00,
2013-10-12 00:07:00,57.2,44.2,30.12,NE,42,0.0,0.0,62,0.00,,CLR,0.00,VWS V14.01,2013-10-12 04:07:00,
2013-10-12 00:12:00,57.2,44.2,30.12,NE,42,0.0,0.0,62,0.00,,CLR,0.00,VWS V14.01,2013-10-12 04:12:00,
2013-10-12 00:17:00,57.2,44.2,30.12,NE,42,0.0,0.0,62,0.00,,CLR,0.00,VWS V14.01,2013-10-12 04:17:00,
2013-10-12 00:22:00,57.2,44.2,30.12,NE,42,0.0,0.0,62,0.00,,CLR,0.00,VWS V14.01,2013-10-12 04:22:00,
2013-10-12 00:27:00,57.2,44.5,30.12,NE,42,0.0,0.0,63,0.00,,CLR,0.00,VWS V14.01,2013-10-12 04:27:00,
2013-10-12 00:31:00,56.8,44.5,30.12,NE,42,0.0,0.0,63,0.00,,CLR,0.00,VWS V14.01,2013-10-12 04:31:00,
2013-10-12 00:36:00,56.7,44.3,30.12,NE,42,0.0,0.0,63,0.00,,CLR,0.00,VWS V14.01,2013-10-12 04:36:00,
2013-10-12 00:41:00,56.5,44.4,30.12,NE,42,0.0,0.0,64,0.00,,CLR,0.00,VWS V14.01,2013-10-12 04:41:00,
2013-10-12 00:46:00,56.3,44.2,30.12,NE,42,0.0,0.0,64,0.00,,CLR,0.00,VWS V14.01,2013-10-12 04:46:00,
2013-10-12 00:51:00,56.3,44.5,30.12,NE,42,0.0,0.0,65,0.00,,CLR,0.00,VWS V14.01,2013-10-12 04:51:00,
2013-10-12 00:56:00,56.1,44.3,30.12,NE,42,0.0,0.0,65,0.00,,CLR,0.00,VWS V14.01,2013-10-12 04:56:00,
2013-10-12 01:01:00,55.9,44.5,30.12,NE,42,0.0,0.0,65,0.00,,CLR,0.00,VWS V14.01,2013-10-12 05:01:00,
2013-10-12 01:06:00,55.8,44.0,30.12,NE,42,0.0,0.0,65,0.00,,CLR,0.00,VWS V14.01,2013-10-12 05:06:00,
2013-10-12 01:11:00,55.6,44.1,30.12,NE,42,0.0,0.0,65,0.00,,CLR,0.00,VWS V14.01,2013-10-12 05:11:00,
2013-10-12 01:16:00,55.4,43.9,30.12,NE,42,0.0,0.0,65,0.00,,CLR,0.00,VWS V14.01,2013-10-12 05:16:00,
2013-10-12 01:21:00,55.0,43.6,30.12,NE,42,0.0,0.0,65,0.00,,CLR,0.00,VWS V14.01,2013-10-12 05:21:00,
2013-10-12 01:26:00,55.0,43.6,30.12,NE,42,0.0,0.0,65,0.00,,CLR,0.00,VWS V14.01,2013-10-12 05:26:00,
2013-10-12 01:31:00,54.9,43.4,30.12,NE,42,0.0,0.0,65,0.00,,CLR,0.00,VWS V14.01,2013-10-12 05:31:00,
2013-10-12 01:36:00,54.7,43.0,30.12,NE,42,0.0,0.0,65,0.00,,CLR,0.00,VWS V14.01,2013-10-12 05:36:00,
2013-10-12 01:41:00,54.7,43.0,30.12,NE,42,0.0,0.0,65,0.00,,CLR,0.00,VWS V14.01,2013-10-12 05:41:00,
2013-10-12 01:46:00,54.7,43.0,30.12,NE,42,0.0,0.0,65,0.00,,CLR,0.00,VWS V14.01,2013-10-12 05:46:00,
2013-10-12 01:51:00,54.5,42.8,30.12,NE,42,0.0,0.0,65,0.00,,CLR,0.00,VWS V14.01,2013-10-12 05:51:00,
2013-10-12 01:56:00,54.5,42.5,30.12,NE,42,0.0,0.0,64,0.00,,CLR,0.00,VWS V14.01,2013-10-12 05:56:00,
2013-10-12 02:01:00,54.7,42.4,30.12,NE,42,0.0,0.0,63,0.00,,CLR,0.00,VWS V14.01,2013-10-12 06:01:00,
2013-10-12 02:06:00,54.7,42.4,30.12,NE,42,0.0,0.0,63,0.00,,CLR,0.00,VWS V14.01,2013-10-12 06:06:00,
2013-10-12 02:11:00,54.7,42.4,30.12,NE,42,0.0,0.0,63,0.00,,CLR,0.00,VWS V14.01,2013-10-12 06:11:00,
2013-10-12 02:16:00,54.9,42.6,30.12,NE,42,0.0,0.0,63,0.00,,CLR,0.00,VWS V14.01,2013-10-12 06:16:00,
2013-10-12 02:21:00,54.9,42.3,30.12,NE,42,0.0,0.0,63,0.00,,CLR,0.00,VWS V14.01,2013-10-12 06:21:00,
2013-10-12 02:26:00,54.9,42.3,30.12,NE,42,0.0,0.0,63,0.00,,CLR,0.00,VWS V14.01,2013-10-12 06:26:00,
2013-10-12 02:31:00,55.0,42.5,30.12,NE,42,0.0,0.0,63,0.00,,CLR,0.00,VWS V14.01,2013-10-12 06:31:00,
2013-10-12 02:36:00,55.2,42.4,30.12,NE,42,0.0,0.0,62,0.00,,CLR,0.00,VWS V14.01,2013-10-12 06:36:00,
2013-10-12 02:41:00,55.4,42.5,30.12,NE,42,0.0,0.0,62,0.00,,CLR,0.00,VWS V14.01,2013-10-12 06:41:00,
2013-10-12 02:46:00,55.4,42.5,30.12,NE,42,0.0,0.0,62,0.00,,CLR,0.00,VWS V14.01,2013-10-12 06:46:00,
2013-10-12 02:51:00,55.4,42.5,30.12,NE,42,0.0,0.0,62,0.00,,CLR,0.00,VWS V14.01,2013-10-12 06:51:00,
2013-10-12 02:56:00,55.4,42.5,30.12,ENE,60,0.0,0.0,62,0.00,,CLR,0.00,VWS V14.01,2013-10-12 06:56:00,
2013-10-12 03:01:00,55.6,42.4,30.12,ENE,60,0.0,0.0,61,0.00,,CLR,0.00,VWS V14.01,2013-10-12 07:01:00,
2013-10-12 03:06:00,55.6,42.4,30.12,ENE,59,0.0,0.0,61,0.00,,CLR,0.00,VWS V14.01,2013-10-12 07:06:00,
2013-10-12 03:11:00,55.8,42.6,30.12,ENE,59,0.0,0.0,61,0.00,,CLR,0.00,VWS V14.01,2013-10-12 07:11:00,
2013-10-12 03:16:00,55.9,42.8,30.12,ENE,59,0.0,0.0,61,0.00,,CLR,0.00,VWS V14.01,2013-10-12 07:16:00,
2013-10-12 03:21:00,55.9,42.8,30.12,NE,45,0.0,0.0,61,0.00,,CLR,0.00,VWS V14.01,2013-10-12 07:21:00,
2013-10-12 03:26:00,55.9,42.8,30.12,NE,45,0.0,0.0,61,0.00,,CLR,0.00,VWS V14.01,2013-10-12 07:26:00,
2013-10-12 03:31:00,56.1,42.9,30.12,NE,45,0.0,0.0,61,0.00,,CLR,0.00,VWS V14.01,2013-10-12 07:31:00,
2013-10-12 03:36:00,56.1,42.9,30.12,ENE,57,0.0,0.0,61,0.00,,CLR,0.00,VWS V14.01,2013-10-12 07:36:00,
2013-10-12 03:41:00,56.3,43.1,30.12,NE,56,0.0,0.0,61,0.00,,CLR,0.00,VWS V14.01,2013-10-12 07:41:00,
2013-10-12 03:46:00,56.3,43.1,30.15,NE,54,0.0,0.0,61,0.00,,CLR,0.00,VWS V14.01,2013-10-12 07:46:00,
2013-10-12 03:51:00,56.3,43.1,30.15,NE,54,0.0,0.0,61,0.00,,CLR,0.00,VWS V14.01,2013-10-12 07:51:00,
2013-10-12 03:56:00,56.3,43.1,30.15,NE,54,0.0,0.0,61,0.00,,CLR,0.00,VWS V14.01,2013-10-12 07:56:00,
2013-10-12 04:01:00,56.5,43.3,30.15,NE,54,0.0,0.0,61,0.00,,CLR,0.00,VWS V14.01,2013-10-12 08:01:00,
2013-10-12 04:06:00,56.5,43.3,30.15,NE,54,0.0,0.0,61,0.00,,CLR,0.00,VWS V14.01,2013-10-12 08:06:00,
2013-10-12 04:11:00,56.5,43.3,30.15,NE,44,5.4,5.4,61,0.00,,CLR,0.00,VWS V14.01,2013-10-12 08:11:00,
2013-10-12 04:16:00,56.5,43.3,30.15,NE,44,0.0,0.0,61,0.00,,CLR,0.00,VWS V14.01,2013-10-12 08:16:00,
2013-10-12 04:21:00,56.5,43.0,30.15,NE,44,0.0,0.0,60,0.00,,CLR,0.00,VWS V14.01,2013-10-12 08:21:00,
2013-10-12 04:26:00,56.3,43.1,30.15,ENE,59,0.0,0.0,61,0.00,,CLR,0.00,VWS V14.01,2013-10-12 08:26:00,
2013-10-12 04:31:00,56.3,43.1,30.15,ENE,59,0.0,0.0,61,0.00,,CLR,0.00,VWS V14.01,2013-10-12 08:31:00,
2013-10-12 04:36:00,56.3,43.1,30.15,ENE,59,0.0,0.0,61,0.00,,CLR,0.00,VWS V14.01,2013-10-12 08:36:00,
2013-10-12 04:41:00,56.3,43.1,30.15,ENE,59,0.0,0.0,61,0.00,,CLR,0.00,VWS V14.01,2013-10-12 08:41:00,
2013-10-12 04:46:00,56.3,43.1,30.15,ENE,59,0.0,0.0,61,0.00,,CLR,0.00,VWS V14.01,2013-10-12 08:46:00,
2013-10-12 04:51:00,56.1,42.9,30.15,ENE,59,0.0,0.0,61,0.00,,CLR,0.00,VWS V14.01,2013-10-12 08:51:00,
2013-10-12 04:56:00,55.9,42.8,30.15,ENE,59,0.0,0.0,61,0.00,,CLR,0.00,VWS V14.01,2013-10-12 08:56:00,
2013-10-12 05:01:00,55.9,42.8,30.15,ENE,59,0.0,0.0,61,0.00,,CLR,0.00,VWS V14.01,2013-10-12 09:01:00,
2013-10-12 05:06:00,55.8,42.6,30.15,ENE,58,0.0,0.0,61,0.00,,CLR,0.00,VWS V14.01,2013-10-12 09:06:00,
2013-10-12 05:11:00,55.6,42.7,30.15,ENE,58,0.0,0.0,62,0.00,,CLR,0.00,VWS V14.01,2013-10-12 09:11:00,
2013-10-12 05:16:00,55.4,42.5,30.15,ENE,58,0.0,0.0,62,0.00,,CLR,0.00,VWS V14.01,2013-10-12 09:16:00,
2013-10-12 05:21:00,55.2,42.7,30.15,ENE,58,0.0,0.0,63,0.00,,CLR,0.00,VWS V14.01,2013-10-12 09:21:00,
2013-10-12 05:26:00,55.0,42.5,30.15,ENE,58,0.0,0.0,63,0.00,,CLR,0.00,VWS V14.01,2013-10-12 09:26:00,
2013-10-12 05:31:00,54.9,42.3,30.15,ENE,58,0.0,0.0,63,0.00,,CLR,0.00,VWS V14.01,2013-10-12 09:31:00,
2013-10-12 05:36:00,54.9,42.6,30.15,NE,55,0.0,0.0,63,0.00,,CLR,0.00,VWS V14.01,2013-10-12 09:36:00,
2013-10-12 05:41:00,54.9,42.9,30.15,NE,55,0.0,0.0,64,0.00,,CLR,0.00,VWS V14.01,2013-10-12 09:41:00,
2013-10-12 05:46:00,54.7,42.7,30.15,NE,55,0.0,0.0,64,0.00,,CLR,0.00,VWS V14.01,2013-10-12 09:46:00,
2013-10-12 05:51:00,54.7,42.7,30.15,NE,55,0.0,0.0,64,0.00,,CLR,0.00,VWS V14.01,2013-10-12 09:51:00,
2013-10-12 05:56:00,54.7,43.0,30.15,NE,55,0.0,0.0,65,0.00,,CLR,0.00,VWS V14.01,2013-10-12 09:56:00,
2013-10-12 06:01:00,54.5,42.8,30.15,NE,55,0.0,0.0,65,0.00,,CLR,0.00,VWS V14.01,2013-10-12 10:01:00,
2013-10-12 06:06:00,54.5,42.8,30.15,NE,55,0.0,0.0,65,0.00,,CLR,0.00,VWS V14.01,2013-10-12 10:06:00,
2013-10-12 06:11:00,54.5,42.8,30.15,NE,55,0.0,0.0,65,0.00,,CLR,0.00,VWS V14.01,2013-10-12 10:11:00,
2013-10-12 06:16:00,54.5,42.8,30.15,NE,55,0.0,0.0,65,0.00,,CLR,0.00,VWS V14.01,2013-10-12 10:16:00,
2013-10-12 06:21:00,54.5,42.8,30.15,NE,55,0.0,0.0,65,0.00,,CLR,0.00,VWS V14.01,2013-10-12 10:21:00,
2013-10-12 06:26:00,54.5,42.8,30.15,NE,55,0.0,0.0,65,0.00,,CLR,0.00,VWS V14.01,2013-10-12 10:26:00,
2013-10-12 06:31:00,54.5,43.1,30.15,NE,55,0.0,0.0,65,0.00,,CLR,0.00,VWS V14.01,2013-10-12 10:31:00,
2013-10-12 06:36:00,54.3,42.9,30.15,NE,55,0.0,0.0,65,0.00,,CLR,0.00,VWS V14.01,2013-10-12 10:36:00,
2013-10-12 06:41:00,54.1,43.0,30.15,NE,55,0.0,0.0,66,0.00,,CLR,0.00,VWS V14.01,2013-10-12 10:41:00,
2013-10-12 06:46:00,54.0,42.8,30.18,NE,55,0.0,0.0,66,0.00,,CLR,0.00,VWS V14.01,2013-10-12 10:46:00,
2013-10-12 06:51:00,53.8,42.7,30.18,NE,55,0.0,0.0,66,0.00,,CLR,0.00,VWS V14.01,2013-10-12 10:51:00,
2013-10-12 06:56:00,53.6,42.8,30.18,NE,55,0.0,0.0,67,0.00,,CLR,0.00,VWS V14.01,2013-10-12 10:56:00,
2013-10-12 07:01:00,53.2,42.4,30.18,NE,55,0.0,0.0,67,0.00,,CLR,0.00,VWS V14.01,2013-10-12 11:01:00,
2013-10-12 07:06:00,53.2,42.7,30.18,NE,55,0.0,0.0,67,0.00,,CLR,0.00,VWS V14.01,2013-10-12 11:06:00,
2013-10-12 07:11:00,53.1,42.5,30.18,NE,55,0.0,0.0,67,0.00,,CLR,0.00,VWS V14.01,2013-10-12 11:11:00,
2013-10-12 07:16:00,52.9,42.3,30.18,NE,55,0.0,0.0,67,0.00,,CLR,0.00,VWS V14.01,2013-10-12 11:16:00,
2013-10-12 07:21:00,52.7,42.4,30.18,NE,55,0.0,0.0,68,0.00,,CLR,0.00,VWS V14.01,2013-10-12 11:21:00,
2013-10-12 07:26:00,52.5,42.2,30.18,NE,55,0.0,0.0,68,0.00,,CLR,0.00,VWS V14.01,2013-10-12 11:26:00,
2013-10-12 07:31:00,52.3,42.1,30.18,NE,55,0.0,0.0,68,0.00,,CLR,0.00,VWS V14.01,2013-10-12 11:31:00,
2013-10-12 07:36:00,52.2,41.9,30.18,NE,55,0.0,0.0,68,0.00,,CLR,0.00,VWS V14.01,2013-10-12 11:36:00,
2013-10-12 07:41:00,52.5,42.5,30.18,NE,55,0.0,0.0,69,0.00,,CLR,0.00,VWS V14.01,2013-10-12 11:41:00,
2013-10-12 07:46:00,52.9,42.8,30.18,NE,55,0.0,0.0,69,0.00,,CLR,0.00,VWS V14.01,2013-10-12 11:46:00,
2013-10-12 07:51:00,53.2,43.2,30.18,ENE,58,6.3,6.3,69,0.00,,CLR,0.00,VWS V14.01,2013-10-12 11:51:00,
2013-10-12 07:56:00,53.6,43.3,30.18,ENE,60,6.3,7.2,68,0.00,,CLR,0.00,VWS V14.01,2013-10-12 11:56:00,
2013-10-12 08:01:00,54.1,43.8,30.18,NE,44,5.4,5.4,68,0.00,,CLR,0.00,VWS V14.01,2013-10-12 12:01:00,
2013-10-12 08:06:00,54.5,43.9,30.18,NNE,32,4.5,5.4,67,0.00,,CLR,0.00,VWS V14.01,2013-10-12 12:06:00,
2013-10-12 08:11:00,55.0,44.4,30.18,NE,46,4.5,5.4,67,0.00,,CLR,0.00,VWS V14.01,2013-10-12 12:11:00,
2013-10-12 08:16:00,55.6,44.6,30.18,NE,55,6.3,6.3,67,0.00,,CLR,0.00,VWS V14.01,2013-10-12 12:16:00,
2013-10-12 08:21:00,55.9,45.2,30.18,NE,37,5.4,7.2,67,0.00,,CLR,0.00,VWS V14.01,2013-10-12 12:21:00,
2013-10-12 08:26:00,56.1,45.4,30.18,NE,45,4.5,5.4,67,0.00,,CLR,0.00,VWS V14.01,2013-10-12 12:26:00,
2013-10-12 08:31:00,56.3,45.6,30.18,NE,54,6.3,6.3,67,0.00,,CLR,0.00,VWS V14.01,2013-10-12 12:31:00,
2013-10-12 08:36:00,56.3,45.6,30.18,NE,53,0.0,0.0,67,0.00,,CLR,0.00,VWS V14.01,2013-10-12 12:36:00,
2013-10-12 08:41:00,56.3,45.6,30.18,ENE,58,7.2,7.2,67,0.00,,CLR,0.00,VWS V14.01,2013-10-12 12:41:00,
2013-10-12 08:46:00,56.3,45.6,30.18,ENE,58,4.5,5.4,67,0.00,,CLR,0.00,VWS V14.01,2013-10-12 12:46:00,
2013-10-12 08:51:00,56.5,45.8,30.18,ENE,64,4.5,7.2,67,0.00,,CLR,0.00,VWS V14.01,2013-10-12 12:51:00,
2013-10-12 08:56:00,56.7,45.9,30.18,NE,45,6.3,6.3,67,0.00,,CLR,0.00,VWS V14.01,2013-10-12 12:56:00,
2013-10-12 09:01:00,57.0,46.3,30.18,NE,52,5.4,5.4,67,0.00,,CLR,0.00,VWS V14.01,2013-10-12 13:01:00,
2013-10-12 09:06:00,57.4,46.4,30.18,ENE,59,6.3,7.2,67,0.00,,CLR,0.00,VWS V14.01,2013-10-12 13:06:00,
2013-10-12 09:11:00,57.7,46.7,30.18,NE,44,5.4,6.3,67,0.00,,CLR,0.00,VWS V14.01,2013-10-12 13:11:00,
2013-10-12 09:16:00,58.1,47.0,30.18,NNE,24,6.3,6.3,67,0.00,,CLR,0.00,VWS V14.01,2013-10-12 13:16:00,
2013-10-12 09:21:00,58.3,47.2,30.18,ENE,61,5.4,6.3,67,0.00,,CLR,0.00,VWS V14.01,2013-10-12 13:21:00,
2013-10-12 09:26:00,58.6,47.6,30.18,ENE,61,5.4,5.4,67,0.00,,CLR,0.00,VWS V14.01,2013-10-12 13:26:00,
2013-10-12 09:31:00,59.0,47.6,30.18,ENE,61,6.3,6.3,66,0.00,,CLR,0.00,VWS V14.01,2013-10-12 13:31:00,
2013-10-12 09:36:00,59.2,47.8,30.21,NE,54,5.4,6.3,66,0.00,,CLR,0.00,VWS V14.01,2013-10-12 13:36:00,
2013-10-12 09:41:00,60.3,48.8,30.21,NE,44,0.0,0.0,66,0.00,,CLR,0.00,VWS V14.01,2013-10-12 13:41:00,
2013-10-12 09:46:00,60.6,49.2,30.21,NE,53,4.5,5.4,66,0.00,,CLR,0.00,VWS V14.01,2013-10-12 13:46:00,
2013-10-12 09:51:00,61.0,49.2,30.21,ENE,64,0.0,8.1,65,0.00,,CLR,0.00,VWS V14.01,2013-10-12 13:51:00,
2013-10-12 09:56:00,61.3,49.6,30.21,NE,41,6.3,6.3,65,0.00,,CLR,0.00,VWS V14.01,2013-10-12 13:56:00,
2013-10-12 10:01:00,61.7,49.9,30.21,NNE,16,0.0,0.0,65,0.00,,CLR,0.00,VWS V14.01,2013-10-12 14:01:00,
2013-10-12 10:06:00,62.2,49.6,30.21,ENE,58,0.0,9.8,63,0.00,,CLR,0.00,VWS V14.01,2013-10-12 14:06:00,
2013-10-12 10:11:00,62.6,49.3,30.21,ENE,60,0.0,0.0,62,0.00,,CLR,0.00,VWS V14.01,2013-10-12 14:11:00,
2013-10-12 10:16:00,63.0,49.4,30.21,ENE,65,7.2,10.7,61,0.00,,CLR,0.00,VWS V14.01,2013-10-12 14:16:00,
2013-10-12 10:21:00,63.3,49.4,30.21,NNE,23,0.0,7.2,60,0.00,,CLR,0.00,VWS V14.01,2013-10-12 14:21:00,
2013-10-12 10:26:00,63.5,49.6,30.21,NE,35,8.1,8.1,60,0.00,,CLR,0.00,VWS V14.01,2013-10-12 14:26:00,
2013-10-12 10:31:00,63.5,49.3,30.21,ENE,78,0.0,8.1,60,0.00,,CLR,0.00,VWS V14.01,2013-10-12 14:31:00,
2013-10-12 10:36:00,63.7,49.8,30.21,NE,49,7.2,8.1,60,0.00,,CLR,0.00,VWS V14.01,2013-10-12 14:36:00,
2013-10-12 10:41:00,63.9,49.6,30.21,NE,50,0.0,7.2,60,0.00,,CLR,0.00,VWS V14.01,2013-10-12 14:41:00,
2013-10-12 10:46:00,64.0,49.8,30.21,NNE,25,6.3,6.3,60,0.00,,CLR,0.00,VWS V14.01,2013-10-12 14:46:00,
2013-10-12 10:51:00,64.2,50.0,30.21,NE,40,5.4,7.2,60,0.00,,CLR,0.00,VWS V14.01,2013-10-12 14:51:00,
2013-10-12 10:56:00,64.2,50.0,30.21,ENE,73,0.0,5.4,60,0.00,,CLR,0.00,VWS V14.01,2013-10-12 14:56:00,
2013-10-12 11:01:00,64.4,49.8,30.21,NE,55,0.0,5.4,59,0.00,,SCT055,0.00,VWS V14.01,2013-10-12 15:01:00,
2013-10-12 11:06:00,64.8,50.2,30.21,NE,36,6.3,6.3,59,0.00,,SCT055,0.00,VWS V14.01,2013-10-12 15:06:00,
2013-10-12 11:11:00,64.9,50.3,30.21,NNE,16,0.0,0.0,59,0.00,,SCT055,0.00,VWS V14.01,2013-10-12 15:11:00,
2013-10-12 11:16:00,65.3,50.7,30.21,South,191,4.5,11.6,59,0.00,,SCT055,0.00,VWS V14.01,2013-10-12 15:16:00,
2013-10-12 11:21:00,65.7,51.0,30.21,NNE,24,4.5,7.2,59,0.00,,SCT055,0.00,VWS V14.01,2013-10-12 15:21:00,
2013-10-12 11:26:00,66.2,51.5,30.21,NNE,24,0.0,0.0,59,0.00,,SCT055,0.00,VWS V14.01,2013-10-12 15:26:00,
2013-10-12 11:31:00,66.6,51.5,30.21,North,357,0.0,7.2,58,0.00,,SCT055,0.00,VWS V14.01,2013-10-12 15:31:00,
2013-10-12 11:36:00,66.7,51.7,30.21,SW,217,5.4,6.3,58,0.00,,SCT055,0.00,VWS V14.01,2013-10-12 15:36:00,
2013-10-12 11:41:00,66.9,51.9,30.21,ENE,62,4.5,5.4,58,0.00,,SCT055,0.00,VWS V14.01,2013-10-12 15:41:00,
2013-10-12 11:46:00,67.1,52.1,30.21,NNE,27,0.0,5.4,58,0.00,,SCT055,0.00,VWS V14.01,2013-10-12 15:46:00,
2013-10-12 11:51:00,67.3,52.2,30.21,East,85,0.0,5.4,58,0.00,,SCT055,0.00,VWS V14.01,2013-10-12 15:51:00,
2013-10-12 11:56:00,67.5,52.4,30.21,NE,37,0.0,0.0,58,0.00,,SCT055,0.00,VWS V14.01,2013-10-12 15:56:00,
2013-10-12 12:01:00,67.6,52.6,30.21,NE,37,0.0,0.0,58,0.00,,CLR,0.00,VWS V14.01,2013-10-12 16:01:00,
2013-10-12 12:06:00,67.8,52.7,30.21,NNE,24,6.3,6.3,58,0.00,,CLR,0.00,VWS V14.01,2013-10-12 16:06:00,
2013-10-12 12:11:00,68.0,52.6,30.21,East,97,0.0,4.5,58,0.00,,CLR,0.00,VWS V14.01,2013-10-12 16:11:00,
2013-10-12 12:16:00,68.2,52.8,30.21,West,271,5.4,10.7,58,0.00,,CLR,0.00,VWS V14.01,2013-10-12 16:16:00,
2013-10-12 12:21:00,68.7,53.3,30.21,ENE,67,7.2,8.1,58,0.00,,CLR,0.00,VWS V14.01,2013-10-12 16:21:00,
2013-10-12 12:26:00,69.1,53.6,30.21,SE,131,0.0,0.0,58,0.00,,CLR,0.00,VWS V14.01,2013-10-12 16:26:00,
2013-10-12 12:31:00,69.3,53.8,30.21,NE,34,5.4,8.1,58,0.00,,CLR,0.00,VWS V14.01,2013-10-12 16:31:00,
2013-10-12 12:36:00,69.3,53.8,30.21,NE,53,0.0,0.0,58,0.00,,CLR,0.00,VWS V14.01,2013-10-12 16:36:00,
2013-10-12 12:41:00,69.4,53.9,30.21,NNE,19,0.0,4.5,58,0.00,,CLR,0.00,VWS V14.01,2013-10-12 16:41:00,
2013-10-12 12:46:00,69.4,53.9,30.21,North,7,0.0,0.0,58,0.00,,CLR,0.00,VWS V14.01,2013-10-12 16:46:00,
2013-10-12 12:51:00,69.4,53.9,30.21,NE,48,6.3,7.2,58,0.00,,CLR,0.00,VWS V14.01,2013-10-12 16:51:00,
2013-10-12 12:56:00,69.6,54.1,30.21,ESE,123,9.8,9.8,58,0.00,,CLR,0.00,VWS V14.01,2013-10-12 16:56:00,
2013-10-12 13:01:00,69.8,54.3,30.21,NNE,28,0.0,6.3,58,0.00,,CLR,0.00,VWS V14.01,2013-10-12 17:01:00,
2013-10-12 13:06:00,70.0,54.4,30.21,East,101,0.0,0.0,58,0.00,,CLR,0.00,VWS V14.01,2013-10-12 17:06:00,
2013-10-12 13:11:00,70.7,55.1,30.21,SSW,196,8.1,8.1,58,0.00,,CLR,0.00,VWS V14.01,2013-10-12 17:11:00,
2013-10-12 13:16:00,72.7,56.6,30.21,ENE,57,4.5,5.4,57,0.00,,CLR,0.00,VWS V14.01,2013-10-12 17:16:00,
2013-10-12 13:21:00,72.7,56.6,30.21,NNE,28,0.0,7.2,57,0.00,,CLR,0.00,VWS V14.01,2013-10-12 17:21:00,
2013-10-12 13:26:00,72.1,56.1,30.21,ENE,63,6.3,7.2,57,0.00,,CLR,0.00,VWS V14.01,2013-10-12 17:26:00,
2013-10-12 13:31:00,72.0,56.0,30.21,ENE,59,7.2,7.2,57,0.00,,CLR,0.00,VWS V14.01,2013-10-12 17:31:00,
2013-10-12 13:36:00,72.3,56.3,30.21,ENE,68,7.2,10.7,57,0.00,,CLR,0.00,VWS V14.01,2013-10-12 17:36:00,
2013-10-12 13:41:00,72.5,56.5,30.21,NE,37,5.4,6.3,57,0.00,,CLR,0.00,VWS V14.01,2013-10-12 17:41:00,
2013-10-12 13:46:00,72.0,56.0,30.21,North,353,4.5,8.1,57,0.00,,CLR,0.00,VWS V14.01,2013-10-12 17:46:00,
2013-10-12 13:50:00,71.6,55.6,30.21,East,98,0.0,0.0,57,0.00,,CLR,0.00,VWS V14.01,2013-10-12 17:50:00,
2013-10-12 13:55:00,71.8,55.8,30.21,NNE,18,6.3,6.3,57,0.00,,CLR,0.00,VWS V14.01,2013-10-12 17:55:00,
2013-10-12 14:00:00,72.3,56.3,30.21,NNE,15,6.3,6.3,57,0.00,,FEW060,0.00,VWS V14.01,2013-10-12 18:00:00,
2013-10-12 14:05:00,72.1,56.1,30.21,NE,41,5.4,6.3,57,0.00,,FEW060,0.00,VWS V14.01,2013-10-12 18:05:00,
2013-10-12 14:10:00,71.6,55.6,30.21,ENE,63,5.4,8.1,57,0.00,,FEW060,0.00,VWS V14.01,2013-10-12 18:10:00,
2013-10-12 14:15:00,71.2,55.6,30.21,NE,41,6.3,7.2,58,0.00,,FEW060,0.00,VWS V14.01,2013-10-12 18:15:00,
2013-10-12 14:20:00,70.7,55.1,30.21,NE,44,0.0,0.0,58,0.00,,FEW060,0.00,VWS V14.01,2013-10-12 18:20:00,
2013-10-12 14:25:00,70.5,54.9,30.21,NNE,16,0.0,0.0,58,0.00,,FEW060,0.00,VWS V14.01,2013-10-12 18:25:00,
2013-10-12 14:30:00,70.9,55.3,30.21,ESE,108,7.2,7.2,58,0.00,,FEW060,0.00,VWS V14.01,2013-10-12 18:30:00,
2013-10-12 14:35:00,70.7,55.1,30.21,NE,39,6.3,6.3,58,0.00,,FEW060,0.00,VWS V14.01,2013-10-12 18:35:00,
2013-10-12 14:40:00,70.5,54.9,30.21,NNE,22,7.2,8.1,58,0.00,,FEW060,0.00,VWS V14.01,2013-10-12 18:40:00,
2013-10-12 14:45:00,70.2,54.6,30.21,ENE,61,0.0,6.3,58,0.00,,FEW060,0.00,VWS V14.01,2013-10-12 18:45:00,
2013-10-12 14:50:00,70.0,54.4,30.21,East,79,6.3,6.3,58,0.00,,FEW060,0.00,VWS V14.01,2013-10-12 18:50:00,
2013-10-12 14:55:00,70.2,54.6,30.21,North,6,5.4,7.2,58,0.00,,FEW060,0.00,VWS V14.01,2013-10-12 18:55:00,
2013-10-12 15:00:00,70.3,54.8,30.21,ESE,106,0.0,0.0,58,0.00,,FEW065,0.00,VWS V14.01,2013-10-12 19:00:00,
2013-10-12 15:05:00,70.5,54.9,30.21,NE,55,0.0,6.3,58,0.00,,FEW065,0.00,VWS V14.01,2013-10-12 19:05:00,
2013-10-12 15:10:00,70.3,54.8,30.21,ENE,59,5.4,6.3,58,0.00,,FEW065,0.00,VWS V14.01,2013-10-12 19:10:00,
2013-10-12 15:16:00,70.0,54.4,30.21,ESE,109,7.2,8.1,58,0.00,,FEW065,0.00,VWS V14.01,2013-10-12 19:16:00,
2013-10-12 15:21:00,69.6,54.1,30.21,North,10,0.0,5.4,58,0.00,,FEW065,0.00,VWS V14.01,2013-10-12 19:21:00,
2013-10-12 15:25:00,69.3,53.8,30.21,North,9,0.0,0.0,58,0.00,,FEW065,0.00,VWS V14.01,2013-10-12 19:25:00,
2013-10-12 15:30:00,69.3,53.8,30.21,WSW,246,8.1,8.1,58,0.00,,FEW065,0.00,VWS V14.01,2013-10-12 19:30:00,
2013-10-12 15:36:00,69.4,54.2,30.21,NW,319,0.0,4.5,58,0.00,,FEW065,0.00,VWS V14.01,2013-10-12 19:36:00,
2013-10-12 15:40:00,69.4,54.2,30.21,SE,133,8.1,8.1,58,0.00,,FEW065,0.00,VWS V14.01,2013-10-12 19:40:00,
2013-10-12 15:46:00,69.1,54.5,30.21,East,81,0.0,0.0,60,0.00,,FEW065,0.00,VWS V14.01,2013-10-12 19:46:00,
2013-10-12 15:51:00,68.7,54.2,30.24,ESE,111,8.1,8.1,60,0.00,,FEW065,0.00,VWS V14.01,2013-10-12 19:51:00,
2013-10-12 15:56:00,68.5,53.7,30.24,NNE,20,0.0,6.3,59,0.00,,FEW065,0.00,VWS V14.01,2013-10-12 19:56:00,
2013-10-12 16:01:00,68.4,53.9,30.24,NE,52,0.0,0.0,60,0.00,,CLR,0.00,VWS V14.01,2013-10-12 20:01:00,
2013-10-12 16:06:00,68.4,53.5,30.24,NNW,339,0.0,5.4,59,0.00,,CLR,0.00,VWS V14.01,2013-10-12 20:06:00,
2013-10-12 16:11:00,68.5,54.0,30.24,NNW,339,0.0,0.0,60,0.00,,CLR,0.00,VWS V14.01,2013-10-12 20:11:00,
2013-10-12 16:16:00,68.5,54.0,30.24,SW,219,8.1,8.1,60,0.00,,CLR,0.00,VWS V14.01,2013-10-12 20:16:00,
2013-10-12 16:21:00,68.4,53.9,30.24,ENE,57,6.3,7.2,60,0.00,,CLR,0.00,VWS V14.01,2013-10-12 20:21:00,
2013-10-12 16:26:00,68.2,53.4,30.24,NE,38,0.0,0.0,59,0.00,,CLR,0.00,VWS V14.01,2013-10-12 20:26:00,
2013-10-12 16:31:00,68.0,53.5,30.24,NNE,33,0.0,0.0,60,0.00,,CLR,0.00,VWS V14.01,2013-10-12 20:31:00,
2013-10-12 16:36:00,67.8,53.4,30.24,NE,55,4.5,6.3,60,0.00,,CLR,0.00,VWS V14.01,2013-10-12 20:36:00,
2013-10-12 16:41:00,67.5,53.3,30.24,NE,35,4.5,7.2,60,0.00,,CLR,0.00,VWS V14.01,2013-10-12 20:41:00,
2013-10-12 16:46:00,67.1,53.0,30.24,NE,50,5.4,5.4,60,0.00,,CLR,0.00,VWS V14.01,2013-10-12 20:46:00,
2013-10-12 16:50:00,66.7,53.0,30.24,North,4,4.5,7.2,61,0.00,,CLR,0.00,VWS V14.01,2013-10-12 20:50:00,
2013-10-12 16:55:00,66.6,52.8,30.24,NNE,19,6.3,7.2,61,0.00,,CLR,0.00,VWS V14.01,2013-10-12 20:55:00,
2013-10-12 17:00:00,66.6,52.5,30.24,ENE,71,0.0,0.0,60,0.00,,CLR,0.00,VWS V14.01,2013-10-12 21:00:00,
2013-10-12 17:05:00,66.4,52.6,30.24,NE,38,0.0,0.0,61,0.00,,CLR,0.00,VWS V14.01,2013-10-12 21:05:00,
2013-10-12 17:11:00,66.0,52.6,30.24,NE,40,0.0,4.5,62,0.00,,CLR,0.00,VWS V14.01,2013-10-12 21:11:00,
2013-10-12 17:16:00,65.8,52.7,30.24,NE,49,0.0,0.0,63,0.00,,CLR,0.00,VWS V14.01,2013-10-12 21:16:00,
2013-10-12 17:20:00,65.5,52.7,30.24,NE,48,0.0,0.0,63,0.00,,CLR,0.00,VWS V14.01,2013-10-12 21:20:00,
2013-10-12 17:25:00,64.9,52.1,30.24,NE,51,6.3,6.3,63,0.00,,CLR,0.00,VWS V14.01,2013-10-12 21:25:00,
2013-10-12 17:30:00,64.4,52.2,30.24,NE,51,7.2,7.2,65,0.00,,CLR,0.00,VWS V14.01,2013-10-12 21:30:00,
2013-10-12 17:35:00,63.9,51.7,30.27,ENE,62,7.2,7.2,65,0.00,,CLR,0.00,VWS V14.01,2013-10-12 21:35:00,
2013-10-12 17:40:00,63.5,51.6,30.27,ENE,60,0.0,7.2,65,0.00,,CLR,0.00,VWS V14.01,2013-10-12 21:40:00,
2013-10-12 17:45:00,63.1,51.3,30.27,NE,46,0.0,7.2,65,0.00,,CLR,0.00,VWS V14.01,2013-10-12 21:45:00,
2013-10-12 17:50:00,63.1,51.3,30.27,NE,41,0.0,6.3,65,0.00,,CLR,0.00,VWS V14.01,2013-10-12 21:50:00,
2013-10-12 17:55:00,63.1,51.3,30.27,East,81,0.0,0.0,65,0.00,,CLR,0.00,VWS V14.01,2013-10-12 21:55:00,
2013-10-12 18:00:00,63.0,51.1,30.27,North,2,0.0,0.0,65,0.00,,CLR,0.00,VWS V14.01,2013-10-12 22:00:00,
2013-10-12 18:05:00,62.8,51.0,30.27,NNE,20,0.0,0.0,65,0.00,,CLR,0.00,VWS V14.01,2013-10-12 22:05:00,
2013-10-12 18:10:00,62.6,50.8,30.27,NE,40,0.0,0.0,65,0.00,,CLR,0.00,VWS V14.01,2013-10-12 22:10:00,
2013-10-12 18:15:00,62.6,51.0,30.27,NE,36,0.0,0.0,66,0.00,,CLR,0.00,VWS V14.01,2013-10-12 22:15:00,
2013-10-12 18:20:00,62.4,50.9,30.27,North,7,4.5,6.3,66,0.00,,CLR,0.00,VWS V14.01,2013-10-12 22:20:00,
2013-10-12 18:25:00,62.2,50.7,30.27,ENE,63,0.0,0.0,66,0.00,,CLR,0.00,VWS V14.01,2013-10-12 22:25:00,
2013-10-12 18:30:00,62.2,51.0,30.27,NE,54,5.4,7.2,67,0.00,,CLR,0.00,VWS V14.01,2013-10-12 22:30:00,
2013-10-12 18:35:00,62.2,51.0,30.27,NE,49,0.0,0.0,67,0.00,,CLR,0.00,VWS V14.01,2013-10-12 22:35:00,
2013-10-12 18:40:00,61.9,50.4,30.27,NNE,15,0.0,0.0,66,0.00,,CLR,0.00,VWS V14.01,2013-10-12 22:40:00,
2013-10-12 18:45:00,61.7,50.5,30.27,ENE,71,4.5,7.2,67,0.00,,CLR,0.00,VWS V14.01,2013-10-12 22:45:00,
2013-10-12 18:50:00,61.5,50.3,30.27,ENE,67,0.0,0.0,67,0.00,,CLR,0.00,VWS V14.01,2013-10-12 22:50:00,
2013-10-12 18:55:00,61.2,50.2,30.27,East,96,0.0,6.3,67,0.00,,CLR,0.00,VWS V14.01,2013-10-12 22:55:00,
2013-10-12 19:00:00,61.0,49.8,30.27,NE,51,0.0,5.4,67,0.00,,CLR,0.00,VWS V14.01,2013-10-12 23:00:00,
2013-10-12 19:05:00,60.8,49.6,30.27,NE,39,5.4,5.4,67,0.00,,CLR,0.00,VWS V14.01,2013-10-12 23:05:00,
2013-10-12 19:10:00,60.6,49.7,30.27,NE,39,5.4,5.4,67,0.00,,CLR,0.00,VWS V14.01,2013-10-12 23:10:00,
2013-10-12 19:15:00,60.4,49.5,30.27,NE,43,0.0,4.5,67,0.00,,CLR,0.00,VWS V14.01,2013-10-12 23:15:00,
2013-10-12 19:20:00,60.4,49.5,30.30,NE,43,0.0,0.0,67,0.00,,CLR,0.00,VWS V14.01,2013-10-12 23:20:00,
2013-10-12 19:25:00,60.1,49.2,30.30,ENE,73,5.4,5.4,67,0.00,,CLR,0.00,VWS V14.01,2013-10-12 23:25:00,
2013-10-12 19:30:00,60.1,49.5,30.30,ENE,72,0.0,0.0,68,0.00,,CLR,0.00,VWS V14.01,2013-10-12 23:30:00,
2013-10-12 19:35:00,59.7,49.1,30.30,NE,50,0.0,0.0,68,0.00,,CLR,0.00,VWS V14.01,2013-10-12 23:35:00,
2013-10-12 19:40:00,59.7,49.1,30.30,NE,38,5.4,5.4,68,0.00,,CLR,0.00,VWS V14.01,2013-10-12 23:40:00,
2013-10-12 19:45:00,59.5,49.0,30.30,NE,49,0.0,0.0,68,0.00,,CLR,0.00,VWS V14.01,2013-10-12 23:45:00,
2013-10-12 19:50:00,59.4,49.0,30.30,ENE,58,0.0,0.0,69,0.00,,CLR,0.00,VWS V14.01,2013-10-12 23:50:00,
2013-10-12 19:55:00,59.4,49.3,30.30,ENE,58,0.0,0.0,69,0.00,,CLR,0.00,VWS V14.01,2013-10-12 23:55:00,
2013-10-12 20:00:00,59.2,49.1,30.30,ENE,58,0.0,0.0,69,0.00,,CLR,0.00,VWS V14.01,2013-10-13 00:00:00,
2013-10-12 20:05:00,58.8,49.0,30.30,ENE,58,0.0,0.0,70,0.00,,CLR,0.00,VWS V14.01,2013-10-13 00:05:00,
2013-10-12 20:10:00,58.6,48.9,30.30,ENE,58,0.0,0.0,70,0.00,,CLR,0.00,VWS V14.01,2013-10-13 00:10:00,
2013-10-12 20:15:00,58.5,49.0,30.30,NE,43,0.0,0.0,71,0.00,,CLR,0.00,VWS V14.01,2013-10-13 00:15:00,
2013-10-12 20:20:00,58.3,48.5,30.30,NE,43,0.0,0.0,70,0.00,,CLR,0.00,VWS V14.01,2013-10-13 00:20:00,
2013-10-12 20:25:00,58.3,48.5,30.30,NE,36,4.5,5.4,70,0.00,,CLR,0.00,VWS V14.01,2013-10-13 00:25:00,
2013-10-12 20:30:00,58.3,48.5,30.30,NE,37,0.0,0.0,70,0.00,,CLR,0.00,VWS V14.01,2013-10-13 00:30:00,
2013-10-12 20:35:00,58.1,48.6,30.30,NE,37,0.0,0.0,71,0.00,,CLR,0.00,VWS V14.01,2013-10-13 00:35:00,
2013-10-12 20:40:00,57.9,48.5,30.30,NE,46,0.0,0.0,71,0.00,,CLR,0.00,VWS V14.01,2013-10-13 00:40:00,
2013-10-12 20:45:00,57.7,48.3,30.30,ENE,60,0.0,0.0,71,0.00,,CLR,0.00,VWS V14.01,2013-10-13 00:45:00,
2013-10-12 20:50:00,57.6,48.4,30.33,ENE,60,0.0,0.0,71,0.00,,CLR,0.00,VWS V14.01,2013-10-13 00:50:00,
2013-10-12 20:55:00,57.4,48.2,30.33,NE,45,0.0,0.0,71,0.00,,CLR,0.00,VWS V14.01,2013-10-13 00:55:00,
2013-10-12 21:00:00,57.4,48.2,30.33,NE,45,0.0,0.0,71,0.00,,CLR,0.00,VWS V14.01,2013-10-13 01:00:00,
2013-10-12 21:05:00,57.2,48.0,30.33,NE,45,0.0,0.0,71,0.00,,CLR,0.00,VWS V14.01,2013-10-13 01:05:00,
2013-10-12 21:10:00,57.0,48.1,30.33,NE,45,0.0,0.0,72,0.00,,CLR,0.00,VWS V14.01,2013-10-13 01:10:00,
2013-10-12 21:15:00,56.8,48.2,30.33,NE,45,0.0,0.0,73,0.00,,CLR,0.00,VWS V14.01,2013-10-13 01:15:00,
2013-10-12 21:20:00,56.7,48.0,30.33,NE,45,0.0,0.0,73,0.00,,CLR,0.00,VWS V14.01,2013-10-13 01:20:00,
2013-10-12 21:25:00,56.5,48.1,30.33,NE,45,0.0,0.0,73,0.00,,CLR,0.00,VWS V14.01,2013-10-13 01:25:00,
2013-10-12 21:30:00,56.3,47.9,30.33,NE,45,0.0,0.0,73,0.00,,CLR,0.00,VWS V14.01,2013-10-13 01:30:00,
2013-10-12 21:35:00,56.1,48.0,30.33,NE,45,0.0,0.0,74,0.00,,CLR,0.00,VWS V14.01,2013-10-13 01:35:00,
2013-10-12 21:40:00,55.9,47.8,30.33,NE,45,0.0,0.0,74,0.00,,CLR,0.00,VWS V14.01,2013-10-13 01:40:00,
2013-10-12 21:45:00,55.9,48.0,30.33,NE,45,0.0,0.0,75,0.00,,CLR,0.00,VWS V14.01,2013-10-13 01:45:00,
2013-10-12 21:50:00,55.9,48.0,30.33,NE,45,0.0,0.0,75,0.00,,CLR,0.00,VWS V14.01,2013-10-13 01:50:00,
2013-10-12 21:55:00,55.9,48.0,30.33,NE,45,0.0,0.0,75,0.00,,CLR,0.00,VWS V14.01,2013-10-13 01:55:00,
2013-10-12 21:57:00,55.9,48.0,30.33,NE,46,0.0,0.0,75,0.00,,CLR,0.00,VWS V14.01,2013-10-13 01:57:00,
2013-10-12 22:02:00,55.9,48.0,30.33,NE,46,0.0,0.0,75,0.00,,CLR,0.00,VWS V14.01,2013-10-13 02:02:00,
2013-10-12 22:07:00,55.9,48.0,30.33,NE,46,0.0,0.0,75,0.00,,CLR,0.00,VWS V14.01,2013-10-13 02:07:00,
2013-10-12 22:12:00,55.9,48.0,30.33,NE,46,0.0,0.0,75,0.00,,CLR,0.00,VWS V14.01,2013-10-13 02:12:00,
2013-10-12 22:17:00,55.9,48.3,30.33,NE,46,0.0,0.0,75,0.00,,CLR,0.00,VWS V14.01,2013-10-13 02:17:00,
2013-10-12 22:22:00,55.9,48.3,30.33,NE,46,0.0,0.0,75,0.00,,CLR,0.00,VWS V14.01,2013-10-13 02:22:00,
2013-10-12 22:27:00,56.1,48.2,30.33,NE,46,0.0,0.0,75,0.00,,CLR,0.00,VWS V14.01,2013-10-13 02:27:00,
2013-10-12 22:32:00,56.1,48.5,30.33,NE,46,0.0,0.0,75,0.00,,CLR,0.00,VWS V14.01,2013-10-13 02:32:00,
2013-10-12 22:37:00,56.1,48.2,30.33,NE,46,0.0,0.0,75,0.00,,CLR,0.00,VWS V14.01,2013-10-13 02:37:00,
2013-10-12 22:42:00,56.3,48.4,30.33,NE,46,0.0,0.0,75,0.00,,CLR,0.00,VWS V14.01,2013-10-13 02:42:00,
2013-10-12 22:47:00,56.3,48.4,30.33,SE,126,0.0,0.0,75,0.00,,CLR,0.00,VWS V14.01,2013-10-13 02:47:00,
2013-10-12 22:52:00,56.3,48.1,30.33,SE,126,0.0,0.0,74,0.00,,CLR,0.00,VWS V14.01,2013-10-13 02:52:00,
2013-10-12 22:57:00,56.3,47.9,30.33,SE,126,0.0,0.0,73,0.00,,CLR,0.00,VWS V14.01,2013-10-13 02:57:00,
2013-10-12 23:02:00,56.1,48.0,30.36,SE,126,0.0,0.0,74,0.00,,CLR,0.00,VWS V14.01,2013-10-13 03:02:00,
2013-10-12 23:07:00,56.1,48.0,30.36,SE,126,0.0,0.0,74,0.00,,CLR,0.00,VWS V14.01,2013-10-13 03:07:00,
2013-10-12 23:12:00,56.1,48.0,30.36,SE,126,0.0,0.0,74,0.00,,CLR,0.00,VWS V14.01,2013-10-13 03:12:00,
2013-10-12 23:17:00,56.1,48.0,30.36,SE,126,0.0,0.0,74,0.00,,CLR,0.00,VWS V14.01,2013-10-13 03:17:00,
2013-10-12 23:22:00,55.9,47.8,30.36,SE,126,0.0,0.0,74,0.00,,CLR,0.00,VWS V14.01,2013-10-13 03:22:00,
2013-10-12 23:27:00,55.9,47.8,30.36,SE,126,0.0,0.0,74,0.00,,CLR,0.00,VWS V14.01,2013-10-13 03:27:00,
2013-10-12 23:32:00,55.8,47.9,30.36,ENE,65,0.0,0.0,75,0.00,,CLR,0.00,VWS V14.01,2013-10-13 03:32:00,
2013-10-12 23:37:00,55.6,47.4,30.36,ENE,65,0.0,0.0,74,0.00,,CLR,0.00,VWS V14.01,2013-10-13 03:37:00,
2013-10-12 23:42:00,55.6,47.4,30.36,ENE,65,0.0,0.0,74,0.00,,CLR,0.00,VWS V14.01,2013-10-13 03:42:00,
2013-10-12 23:47:00,55.4,47.3,30.36,SW,221,0.0,5.4,74,0.00,,CLR,0.00,VWS V14.01,2013-10-13 03:47:00,
2013-10-12 23:52:00,55.2,47.3,30.36,SW,221,0.0,0.0,75,0.00,,CLR,0.00,VWS V14.01,2013-10-13 03:52:00,
2013-10-12 23:57:00,55.0,47.2,30.36,SW,221,0.0,0.0,75,0.00,,CLR,0.00,VWS V14.01,2013-10-13 03:57:00,